Poplar Bluff, MO

10:45 PM CST on February 22, 2017 (GMT -0600)
Poplar Bluff Municipal

Weather History for KPOF - May, 2015

Change the Weather History Date:

Friday, May 15, 2015

  Actual Average Record
Temperature  
Mean Temperature 70 °F -  
Max Temperature 82 °F 79 °F 94 °F (1944)
Min Temperature 60 °F 53 °F 39 °F (1926)
Cooling Degree Days 6    
Growing Degree Days 20 (Base 50)    
Moisture  
Dew Point 64 °F    
Average Humidity 81    
Maximum Humidity 93    
Minimum Humidity 67    
Precipitation  
Precipitation 0.48 in - - ()
Sea Level Pressure  
Sea Level Pressure 30.03 in    
Wind  
Wind Speed 4 mph (SW)    
Max Wind Speed 23 mph    
Max Gust Speed 34 mph    
Visibility 9 miles    
Events Rain , Thunderstorm    
Averages and records for this station are not official NWS values.
T = Trace of Precipitation, MM = Missing Value Source: NWS Daily Summary

Daily Weather History Graph

Daily Weather History Graph

Search for Another Location

Airport or City:

Trip Planner

Search our weather history database for the weather conditions in past years. The results will help you decide how hot, cold, wet, or windy it might be!

Date:

Astronomy

May. 15, 2015 Rise Set
Actual Time 5:53 AM CDT 8:01 PM CDT
Civil Twilight 5:25 AM CDT 8:30 PM CDT
Nautical Twilight 4:49 AM CDT 9:06 PM CDT
Astronomical Twilight 4:11 AM CDT 9:44 PM CDT
Moon 4:16 AM CDT (5/15) 5:26 PM CDT (5/15)
Length of Visible Light 15h 05m
Length of Day
14h 07m
Waning Crescent, 8% of the Moon is Illuminated
May 15
Waning Crescent
May 17
New
May 25
First Quarter
Jun 2
Full
Jun 9
Last Quarter

Hourly Weather History & Observations

Time (CDT) Temp. Heat Index Dew Point Humidity Pressure Visibility Wind Dir Wind Speed Gust Speed Precip Events Conditions
12:53 AM 64.0 °F - 57.0 °F 78% 30.05 in 10.0 mi Calm Calm - N/A   Clear
1:53 AM 62.1 °F - 57.9 °F 86% 30.04 in 10.0 mi Calm Calm - N/A   Clear
2:53 AM 61.0 °F - 57.9 °F 90% 30.03 in 10.0 mi Calm Calm - N/A   Clear
3:53 AM 61.0 °F - 57.9 °F 90% 30.03 in 10.0 mi Calm Calm - N/A   Clear
4:53 AM 61.0 °F - 57.9 °F 90% 30.04 in 10.0 mi Calm Calm - N/A   Clear
5:53 AM 60.1 °F - 57.9 °F 93% 30.04 in 10.0 mi Calm Calm - N/A   Clear
6:53 AM 62.1 °F - 59.0 °F 90% 30.06 in 8.0 mi North 3.5 mph - N/A   Clear
7:53 AM 64.9 °F - 61.0 °F 87% 30.07 in 10.0 mi Calm Calm - N/A   Partly Cloudy
8:53 AM 70.0 °F - 63.0 °F 78% 30.08 in 10.0 mi South 5.8 mph - N/A   Clear
9:53 AM 73.9 °F - 64.9 °F 73% 30.08 in 10.0 mi SW 9.2 mph - N/A   Clear
10:53 AM 77.0 °F - 68.0 °F 74% 30.07 in 10.0 mi Variable 6.9 mph - N/A   Partly Cloudy
11:53 AM 81.0 °F 84.1 °F 69.1 °F 67% 30.05 in 10.0 mi SSW 11.5 mph - N/A   Clear
12:53 PM 81.0 °F 84.1 °F 69.1 °F 67% 30.03 in 10.0 mi SW 12.7 mph - N/A Thunderstorm Mostly Cloudy
1:30 PM 75.0 °F - 66.0 °F 73% 30.02 in 2.5 mi South 20.7 mph 28.8 mph 0.00 in Rain , Thunderstorm Thunderstorms and Rain
1:53 PM 72.0 °F - 64.9 °F 78% 30.04 in 10.0 mi WNW 8.1 mph - 0.11 in Thunderstorm Thunderstorm
2:10 PM 73.9 °F - 66.9 °F 79% 30.04 in 10.0 mi NW 9.2 mph - N/A Thunderstorm Thunderstorm
2:16 PM 75.0 °F - 68.0 °F 79% 30.03 in 10.0 mi NNW 10.4 mph - N/A   Mostly Cloudy
2:28 PM 75.9 °F - 66.9 °F 74% 30.03 in 10.0 mi NNW 6.9 mph - N/A   Scattered Clouds
2:41 PM 75.9 °F - 66.9 °F 74% 30.02 in 10.0 mi NW 6.9 mph - N/A Thunderstorm Partly Cloudy
2:53 PM 75.9 °F - 66.9 °F 74% 30.01 in 10.0 mi NW 8.1 mph - N/A Thunderstorm Mostly Cloudy
3:01 PM 73.9 °F - 66.0 °F 76% 30.05 in 1.8 mi SSW 23.0 mph 34.5 mph N/A Thunderstorm Unknown
3:09 PM 69.8 °F - 64.4 °F 83% 30.03 in 0.5 mi Calm Calm - N/A Rain , Thunderstorm Heavy Thunderstorms and Rain
3:15 PM 70.0 °F - 64.9 °F 84% 30.02 in 2.5 mi East 4.6 mph - 0.32 in Rain , Thunderstorm Light Thunderstorms and Rain
3:22 PM 72.0 °F - 64.0 °F 76% 30.02 in 10.0 mi SSW 4.6 mph - 0.32 in Rain , Thunderstorm Light Thunderstorms and Rain
3:38 PM 73.0 °F - 64.9 °F 76% 30.02 in 10.0 mi Calm Calm - 0.32 in Thunderstorm Scattered Clouds
3:53 PM 73.9 °F - 64.9 °F 73% 30.02 in 10.0 mi SSW 6.9 mph - 0.32 in Rain Light Rain
4:53 PM 71.1 °F - 66.0 °F 84% 30.01 in 10.0 mi SW 3.5 mph - 0.00 in Rain Light Rain
5:53 PM 71.1 °F - 66.0 °F 84% 30.02 in 10.0 mi SSE 6.9 mph - 0.03 in Rain Light Rain
6:53 PM 70.0 °F - 66.0 °F 87% 29.99 in 10.0 mi SE 3.5 mph - 0.02 in Rain Light Rain
7:53 PM 70.0 °F - 66.9 °F 90% 29.97 in 10.0 mi SSE 5.8 mph - 0.00 in Rain Light Rain
8:53 PM 69.1 °F - 66.0 °F 90% 30.00 in 10.0 mi Calm Calm - 0.00 in   Clear
9:53 PM 69.1 °F - 66.0 °F 90% 30.02 in 10.0 mi Calm Calm - N/A   Scattered Clouds
10:53 PM 69.1 °F - 66.0 °F 90% 30.03 in 10.0 mi East 3.5 mph - N/A   Scattered Clouds
11:53 PM 68.0 °F - 66.0 °F 93% 30.02 in 10.0 mi Calm Calm - N/A   Clear